カタログに戻る

HULIANWANG DIGUI-26

運用中通信PO
NORAD 63693·PAYLOAD·🇨🇳 China

打ち上げ Apr 28, 2025 から Wenchang Space Launch Site

Loading…

次のパス (今後24時間)

TLE

最新Source: Space-Track

元期: Sep 14, 2026, 13:43 UTC

1 63693U 25086G   26257.57209043  .00000051  00000-0  85352-4 0  9993
2 63693  86.5020 283.1196 0002045  74.8596 285.2764 13.24412720 66697

AllMySatでHULIANWANG DIGUI-26をリアルタイム追跡

Download on the App Store